Tracking 19484 objects as of 19-Jan-2019
HD Live streaming from Space Station
objects crossing your sky now

COSMOS 1157

Track COSMOS 1157 now!
10-day predictions
COSMOS 1157 is classified as:


NORAD ID: 11692
Int'l Code: 1980-012B
Perigee: 1,421.9 km
Apogee: 1,483.7 km
Inclination: 74.0 °
Period: 114.8 minutes
Semi major axis: 7823 km
RCS: 0.711 m2 (medium)
Launch date: February 11, 1980
Source: Commonwealth of Independent States (former USSR) (CIS)
Launch site: PLESETSK MISSILE AND SPACE COMPLEX (PKMTR)
aabbcc
Your satellite tracking list
Your tracking list is empty




NASA's NSSDC Master Catalog

Two Line Element Set (TLE):
1 11692U 80012B   19017.85623198 -.00000020 +00000-0 -24191-4 0  9995
2 11692 074.0197 159.4979 0039486 181.1796 292.2676 12.54522172782918
Source of the keplerian elements: AFSPC